Location: Newark
(55.7167°N, 12.5667°E)
Time: 17:09:56
(UTC+00:00)

N. Korean satellite - Pass Details

Date: 19 December 2019
Orbit: 454 x 507 km, 97.2° (Epoch: 21 January)

Event Time Altitude Azimuth Distance (km) Brightness Sun altitude
Rises 04:15:20 0° 24° (NNE) 2,529 10.5 -26.3°
Reaches altitude 10° 04:17:49 10° 42° (NE) 1,636 9.7 -25.9°
Maximum altitude 04:20:29 20° 91° (E) 1,132 9.2 -25.6°
Drops below altitude 10° 04:23:06 10° 141° (SE) 1,607 9.7 -25.2°
Sets 04:25:31 0° 159° (SSE) 2,470 10.5 -24.9°
